#timestamp,LO_Frequency,Hit 
1501423215.0,286046996.9,N
1501423215.9,286046996.9,N
1501423235.8,286046998.6,N
1501423255.6,286046996.5,N
1501423275.4,286046997.1,N
1501423295.3,286046996.5,N
1501423315.1,286046997.4,N
1501423316.0,286046997.4,N
1501423335.8,286046996.7,N
1501423355.6,286046996.6,N
1501423375.5,286046997.2,N
1501423395.3,286046999.1,N
1501423415.1,286046997.1,N
1501423435.9,286046999.6,N
1501423455.7,286046997.1,N
1501423475.5,286046997.4,N
1501423495.4,286046999.6,N
1501423515.2,286046997.3,N
1501423535.0,286046999.3,N
1501423535.9,286046999.3,N
1501423555.8,286046997.0,N
1501423575.6,286046997.7,N
1501423595.4,286046997.3,N
1501423615.2,286046997.3,N
1501423635.1,286046997.8,N
1501423636.0,286046997.8,N
1501423655.8,286046997.1,N
1501423675.6,286046997.0,N
1501423695.5,286046997.1,N
1501423715.3,286046997.9,N
1501423735.1,286046999.4,N
1501423755.9,286046997.4,N
1501423775.7,286046997.4,N
1501423795.5,286046994.9,N
1501423815.4,286046997.1,N
1501423835.2,286046997.1,N
1501423855.0,286046997.3,N
1501423855.9,286046997.3,N
1501423875.8,286046998.0,N
1501423895.6,286046996.8,N
1501423915.4,286046997.0,N
1501423935.2,286046999.6,N
1501423955.1,286046997.7,N
1501423956.0,286046997.7,N
1501423975.8,286046997.3,N
1501423995.6,286046997.0,N
1501424015.5,286046996.6,N
1501424035.3,286046995.3,N
1501424055.1,286046995.4,N
1501424075.9,286046997.9,N
1501424095.7,286046995.2,N
1501424115.5,286046997.9,N
1501424135.4,286046995.1,N
1501424155.2,286046996.1,N
1501424175.0,286046996.0,N
1501424175.9,286046996.0,N
1501424195.7,286046995.9,N
1501424215.6,286046995.9,N
1501424235.4,286046993.7,N
1501424255.2,286046995.0,N
1501424275.1,286046994.9,N
1501424276.0,286046994.9,N
1501424295.8,286046995.7,N
1501424315.6,286046996.1,N
1501424335.5,286046996.2,N
1501424355.3,286046996.2,N
1501424375.1,286046996.0,N
1501424395.9,286046996.4,N
1501424415.7,286046995.0,N
1501424435.5,286046996.1,N
1501424455.3,286046995.2,N
1501424475.2,286046993.9,N
1501424495.0,286046993.7,N
1501424495.9,286046993.7,N
1501424515.7,286046996.3,N
1501424535.6,286046994.1,N
1501424555.4,286046993.6,N
1501424575.2,286046993.4,N
1501424595.1,286046993.6,N
1501424596.0,286046993.6,N
1501424615.8,286046993.9,N
1501424635.6,286046995.9,N
1501424655.5,286046995.9,N
1501424675.3,286046993.3,N
1501424695.1,286046993.8,N
1501424715.9,286046994.1,N
1501424735.7,286046996.0,N
1501424755.5,286046995.6,N
1501424775.3,286046996.2,N
1501424795.2,286046995.9,N
1501424815.0,286046996.4,N
1501424815.9,286046996.4,N
1501424835.7,286046993.8,N
1501424855.6,286046995.9,N
1501424875.4,286046995.0,N
1501424895.2,286046996.4,N
1501424915.1,286046995.6,N
1501424916.0,286046995.6,N
1501424935.8,286046993.4,N
1501424955.6,286046994.2,N
1501424975.5,286046994.7,N
1501424995.3,286046994.7,N
1501425015.1,286046992.0,N
1501425035.9,286046991.7,N
1501425055.7,286046992.4,N
1501425075.5,286046994.3,N
1501425095.3,286046991.8,N
1501425115.2,286046991.8,N
1501425135.0,286046991.7,N
1501425135.9,286046991.7,N
1501425155.7,286046992.5,N
1501425175.6,286046992.3,N
1501425195.4,286046994.3,N
1501425215.2,286046993.0,N
1501425235.1,286046992.0,N
1501425236.0,286046992.0,N
1501425255.8,286046992.3,N
1501425275.6,286046992.4,N
1501425295.5,286046992.3,N
1501425315.3,286046992.4,N
1501425335.1,286046990.6,N
1501425355.9,286046993.1,N
1501425375.7,286046992.1,N
1501425395.5,286046992.8,N
1501425415.3,286046992.3,N
1501425435.2,286046993.2,N
1501425455.0,286046992.9,N
1501425455.9,286046992.9,N
1501425475.7,286046992.5,N
1501425495.6,286046993.0,N
1501425515.4,286046992.8,N
1501425535.2,286046994.8,N
1501425555.1,286046994.2,N
1501425556.0,286046994.2,N
1501425575.8,286046992.7,N
1501425595.6,286046992.8,N
1501425615.5,286046992.1,N
1501425635.3,286046992.5,N
1501425655.1,286046992.9,N
1501425675.9,286046991.7,N
1501425695.7,286046991.8,N
1501425715.5,286046992.3,N
1501425735.3,286046990.7,N
1501425755.2,286046993.2,N
1501425775.0,286046990.1,N
1501425775.9,286046990.1,N
1501425795.7,286046992.4,N
1501425815.6,286046993.1,N
1501425835.4,286046992.9,N
1501425855.2,286046991.8,N
1501425875.1,286046992.7,N
1501425876.0,286046992.7,N
1501425895.8,286046990.4,N
1501425915.6,286046992.5,N
1501425935.5,286046991.3,N
1501425955.3,286046993.2,N
1501425975.1,286046992.8,N
1501425995.9,286046992.4,N
1501426015.7,286046990.5,N
1501426035.5,286046993.2,N
1501426055.3,286046993.2,N
1501426075.2,286046991.0,N
1501426095.0,286046992.8,N
1501426095.9,286046992.8,N
1501426115.7,286046992.8,N
1501426135.6,286046993.2,N
1501426155.4,286046990.4,N
1501426175.2,286046991.2,N
1501426195.1,286046993.0,N
1501426196.0,286046993.0,N
1501426215.8,286046993.2,N
1501426235.6,286046990.6,N
1501426255.5,286046993.1,N
1501426275.3,286046990.5,N
1501426295.1,286046993.2,N
1501426315.8,286046990.7,N
1501426335.7,286046990.3,N
1501426355.5,286046993.0,N
1501426375.3,286046992.9,N
1501426395.2,286046992.2,N
1501426415.9,286046992.7,N
1501426435.7,286046993.0,N
1501426455.6,286046992.6,N
1501426475.4,286046992.5,N
1501426495.2,286046992.8,N
1501426515.1,286046990.1,N
1501426516.0,286046990.1,N
1501426535.8,286046992.7,N
1501426555.6,286046990.6,N
1501426575.4,286046990.2,N
1501426595.3,286046991.0,N
1501426615.1,286046990.8,N
1501426635.8,286046988.5,N
1501426655.7,286046990.9,N
1501426675.5,286046989.0,N
1501426695.3,286046989.0,N
1501426715.2,286046991.5,N
1501426735.9,286046990.7,N
1501426755.7,286046992.9,N
1501426775.6,286046992.8,N
1501426795.4,286046990.4,N
